STARLINK-11294 [DTC]

Last updated on Tue Oct 08 2024 00:02:04 GMT+0000 (Coordinated Universal Time)

1 61054U 24164E 24281.42595941 .00034931 00000+0 21600-3 0 9990 2 61054 53.1553 346.5787 0001212 137.2972 222.8143 15.76785598 4992
UTC large
Height (km)
Speed (km/s)
/
Latitude / Longitude
Inclination (degrees)
Orbital Period (minutes)
Azimuth
Elevation
Range (km)
Doppler Factor

Next 0 passes for location: London (51.5072 / 0.1276)

Sorry there are no passes over London.